Regional Weather Roundup
Issued by NWS

Home | Current Version | Previous Version | Text Only | Print | Product List | Glossary Off
Versions: 1 2 3 4 5 6 7 8 9 10 11 12 13 14 15 16 17 18 19 20 21 22 23 24 25 26 27 28 29 30 31 32 33 34 35 36 37 38 39 40 41 42 43 44 45 46 47 48 49 50

000
ASUS43 KIND 031509
RWRIN

WEATHER ROUNDUP FOR INDIANA
NATIONAL WEATHER SERVICE INDIANAPOLIS IN
1100 AM EDT THU SEP 03 2015

NOTE: "FAIR" INDICATES FEW OR NO CLOUDS BELOW 12,000 FEET WITH NO
SIGNIFICANT WEATHER AND/OR OBSTRUCTIONS TO VISIBILITY.

* - STATION DOES NOT REPORT WEATHER SUCH AS PRECIPITATION OR FOG.

+ - STATION NOT QUALITY CONTROLLED BY THE NATIONAL WEATHER SERVICE.
    USE DATA WITH CAUTION...ESPECIALLY DEWPOINT AND RELATIVE
    HUMIDITY OBSERVATIONS.

INZ001>003-010>013-019-020-031600-
NORTHWEST INDIANA

CITY           SKY/WX    TMP DP  RH WIND       PRES   REMARKS
GARY /AIRPORT/ SUNNY     82  66  57 SW9       29.96F
KNOX *+        SUNNY     81  68  65 SW8       29.98S
LA PORTE +     SUNNY     82  71  68 W9        29.99S
MICHIGAN CITY+ SUNNY     82  68  61 SW6       29.97S
MONTICELLO +   SUNNY     82  72  72 SW7       30.00S
RENSSELAER +   SUNNY     82  73  74 SW8       29.99F
VALPARAISO     SUNNY     82  70  66 SW10      29.98F

$$

LMZ046-743>745-031600-
SOUTHERN LAKE MICHIGAN

STATION/POSITION TIME  TEMP    WIND        PRES    WAVE
                       AIR SEA DIR/SP/G            HT
                 (UTC) (F)     (DEG/KT/KT) (MB)    (FT)
BURNS HARBOR     1400   78     210/ 10/ 13 1014.9F
MICHIGAN CITY    1400   78     190/  9/ 10   N/A
5NW MICH CITY    1500   76 73  240/  4/  6   N/A     1

$$

INZ004-005-014>016-021>024-031600-
NORTH CENTRAL INDIANA

CITY           SKY/WX    TMP DP  RH WIND       PRES   REMARKS
ELKHART        SUNNY     82  70  65 SW7       29.99R
GOSHEN         SUNNY     82  69  64 SW10      29.99S
LOGANSPORT +   SUNNY     82  63  51 W10       30.02S
PERU/GRISSOM   SUNNY     83  71  65 SW10      30.00F
ROCHESTER +    SUNNY     86  70  58 W8        30.00F
SOUTH BEND     SUNNY     80  69  69 SW13      29.98S
WARSAW +       SUNNY     81  70  69 SW6       30.00S

$$

INZ006>009-017-018-025>027-031600-
NORTHEAST INDIANA

CITY           SKY/WX    TMP DP  RH WIND       PRES   REMARKS
ANGOLA *+      SUNNY     86  72  62 W5        30.00R
AUBURN +       SUNNY     81  66  61 W6        30.02R
FORT WAYNE     MOSUNNY   83  70  64 W7        30.02R
HUNTINGTON +   SUNNY     82  65  56 SW6       30.01S

$$

INZ028-029-035-036-043>045-051>053-031600-
WEST CENTRAL INDIANA

CITY           SKY/WX    TMP DP  RH WIND       PRES   REMARKS
CRAWFORDSVL +  SUNNY     81  67  62 SW6       30.03S
GREENCASTLE +  SUNNY     81  64  57 S5        30.04F
LAFAYETTE      SUNNY     83  69  62 SW7       30.00S
TERRE HAUTE    SUNNY     83  69  62 SW5       30.03F

$$

INZ030>032-037>040-046>048-054>057-064-065-031600-
CENTRAL INDIANA

CITY           SKY/WX    TMP DP  RH WIND       PRES   REMARKS
ANDERSON       SUNNY     82  63  51 CALM      30.04F
FISHERS *+     SUNNY     81  73  78 SW8       30.03
FRANKFORT +    SUNNY     83  72  69 S9        30.04S
GREENWOOD *+   SUNNY     82  64  54 W7        30.04F
INDIANAPOLIS   SUNNY     83  68  60 SW10      30.03F
-EAGLE CREEK   SUNNY     83  69  62 SW6       30.02F
KOKOMO *+      SUNNY     84  70  61 W10       30.02S
MARION +       SUNNY     81  61  49 W7        30.03S
MT COMFORT *+  SUNNY     84  63  48 SW8       30.04S
SHELBYVILLE    SUNNY     84  69  60 W6        30.03F
ZIONSVILLE +   SUNNY     83  68  59 W9        30.04S

$$

INZ033-034-041-042-049-050-058-059-031600-
EAST CENTRAL INDIANA

CITY           SKY/WX    TMP DP  RH WIND       PRES   REMARKS
MUNCIE         SUNNY     81  69  67 W8        30.03S

$$

INZ060-061-067>069-081>083-085>088-031600-
SOUTHWEST INDIANA

CITY           SKY/WX    TMP DP  RH WIND       PRES   REMARKS
EVANSVILLE     SUNNY     85  69  58 VRB5      30.04F
HUNTINGBURG *+ SUNNY     82  70  65 CALM      30.05S
WASHINGTON +   SUNNY     84  64  51 W3        30.03S

$$

INZ062-063-066-070>080-084-089>092-031600-
SOUTH CENTRAL AND SOUTHEAST INDIANA

CITY           SKY/WX    TMP DP  RH WIND       PRES   REMARKS
BLOOMINGTON    SUNNY     83  68  60 W5        30.05S
NORTH VERNON + SUNNY     82  68  61 CALM      30.05F
SEYMOUR +      SUNNY     86  66  51 CALM      30.04S

$$



USA.gov is the U.S. government's official web portal to all federal, state and local government web resources and services.